| time (UTC) | temp F | wind direction | speed MPH | gust MPH | rain 1hr in | rain 24hr in | rain mn in | humidity % | barometer mb |
| 20260502180718 | 64 | 341 | 0.0 | 0.0 | 0.00 | 0.00 | 0.00 | 58 | 1018.4 |
| 20260502180210 | 64 | 338 | 0.0 | 0.0 | 0.00 | 0.00 | 0.00 | 58 | 1018.3 |
| 20260502170229 | 69 | 320 | 0.0 | 0.0 | 0.00 | 0.00 | 0.00 | 49 | 1018.3 |
| 20260502164226 | 70 | 317 | 0.0 | 0.0 | 0.00 | 0.00 | 0.00 | 47 | 1018.4 |
| 20260502163729 | 70 | 325 | 0.0 | 0.0 | 0.00 | 0.00 | 0.00 | 46 | 1018.5 |
| 20260502162212 | 71 | 329 | 0.0 | 0.0 | 0.00 | 0.00 | 0.00 | 45 | 1018.7 |
| 20260502161708 | 71 | 306 | 0.0 | 0.0 | 0.00 | 0.00 | 0.00 | 45 | 1018.7 |
| 20260502161210 | 72 | 312 | 0.0 | 2.0 | 0.00 | 0.00 | 0.00 | 46 | 1018.8 |
| 20260502160720 | 72 | 341 | 0.0 | 5.0 | 0.00 | 0.00 | 0.00 | 45 | 1019.0 |
| 20260502160226 | 73 | 321 | 0.0 | 6.0 | 0.00 | 0.00 | 0.00 | 42 | 1019.0 |
| 20260502152218 | 74 | 321 | 3.0 | 8.0 | 0.00 | 0.00 | 0.00 | 39 | 1019.3 |
| 20260502151728 | 74 | 321 | 4.0 | 8.0 | 0.00 | 0.00 | 0.00 | 38 | 1019.3 |
| 20260502151208 | 74 | 331 | 4.0 | 7.0 | 0.00 | 0.00 | 0.00 | 39 | 1019.4 |
| 20260502150723 | 74 | 334 | 3.0 | 7.0 | 0.00 | 0.00 | 0.00 | 40 | 1019.4 |
| 20260502150223 | 74 | 335 | 3.0 | 8.0 | 0.00 | 0.00 | 0.00 | 38 | 1019.4 |
| 20260502130718 | 74 | 347 | 5.0 | 11.0 | 0.00 | 0.00 | 0.00 | 40 | 1020.8 |
| 20260502130220 | 74 | 304 | 1.0 | 7.0 | 0.00 | 0.00 | 0.00 | 41 | 1020.8 |
| 20260502122722 | 75 | 177 | 0.0 | 4.0 | 0.00 | 0.00 | 0.00 | 35 | 1021.2 |
| 20260502122223 | 74 | 49 | 0.0 | 6.0 | 0.00 | 0.00 | 0.00 | 35 | 1021.2 |
| 20260502121719 | 74 | 138 | 0.0 | 6.0 | 0.00 | 0.00 | 0.00 | 34 | 1021.3 |
| 20260502121240 | 73 | 170 | 0.0 | 7.0 | 0.00 | 0.00 | 0.00 | 33 | 1021.3 |
| 20260502120715 | 73 | 200 | 0.0 | 7.0 | 0.00 | 0.00 | 0.00 | 37 | 1021.5 |
| 20260502120227 | 73 | 301 | 1.0 | 9.0 | 0.00 | 0.00 | 0.00 | 34 | 1021.5 |
| 20260502115716 | 72 | 209 | 3.0 | 9.0 | 0.00 | 0.00 | 0.00 | 34 | 1021.7 |
| 20260502115222 | 72 | 253 | 3.0 | 9.0 | 0.00 | 0.00 | 0.00 | 34 | 1021.7 |
| 20260502114718 | 73 | 309 | 3.0 | 9.0 | 0.00 | 0.00 | 0.00 | 36 | 1021.7 |
| 20260502113724 | 73 | 163 | 0.0 | 10.0 | 0.00 | 0.00 | 0.00 | 35 | 1021.9 |
| 20260502113217 | 73 | 236 | 2.0 | 10.0 | 0.00 | 0.00 | 0.00 | 38 | 1021.9 |
| 20260502112726 | 72 | 187 | 2.0 | 9.0 | 0.00 | 0.00 | 0.00 | 37 | 1022.0 |
| 20260502112207 | 72 | 128 | 0.0 | 8.0 | 0.00 | 0.00 | 0.00 | 39 | 1022.0 |
| 20260502111726 | 72 | 229 | 1.0 | 8.0 | 0.00 | 0.00 | 0.00 | 38 | 1022.0 |
| 20260502111209 | 72 | 169 | 2.0 | 8.0 | 0.00 | 0.00 | 0.00 | 36 | 1022.1 |
| 20260502110758 | 71 | 124 | 1.0 | 7.0 | 0.00 | 0.00 | 0.00 | 36 | 1022.1 |
| 20260502110233 | 71 | 5 | 1.0 | 10.0 | 0.00 | 0.00 | 0.00 | 36 | 1022.2 |
| 20260502105722 | 71 | 199 | 1.0 | 10.0 | 0.00 | 0.00 | 0.00 | 39 | 1022.3 |
| 20260502105221 | 71 | 133 | 3.0 | 10.0 | 0.00 | 0.00 | 0.00 | 39 | 1022.3 |
| 20260502104724 | 71 | 214 | 4.0 | 9.0 | 0.00 | 0.00 | 0.00 | 40 | 1022.4 |
| 20260502104225 | 71 | 167 | 3.0 | 9.0 | 0.00 | 0.00 | 0.00 | 39 | 1022.4 |
| 20260502103719 | 71 | 171 | 2.0 | 7.0 | 0.00 | 0.00 | 0.00 | 43 | 1022.4 |
| 20260502103220 | 71 | 141 | 1.0 | 7.0 | 0.00 | 0.00 | 0.00 | 41 | 1022.4 |
| 20260502102717 | 71 | 191 | 1.0 | 6.0 | 0.00 | 0.00 | 0.00 | 43 | 1022.5 |
| 20260502102232 | 70 | 135 | 2.0 | 6.0 | 0.00 | 0.00 | 0.00 | 43 | 1022.5 |
| 20260502101232 | 70 | 165 | 0.0 | 6.0 | 0.00 | 0.00 | 0.00 | 46 | 1022.7 |
| 20260502100726 | 70 | 144 | 0.0 | 6.0 | 0.00 | 0.00 | 0.00 | 48 | 1022.8 |
| 20260502100223 | 69 | 130 | 1.0 | 7.0 | 0.00 | 0.00 | 0.00 | 49 | 1022.8 |
| 20260502091210 | 67 | 168 | 2.0 | 7.0 | 0.00 | 0.00 | 0.00 | 51 | 1023.4 |
| 20260502090219 | 66 | 193 | 1.0 | 6.0 | 0.00 | 0.00 | 0.00 | 50 | 1023.5 |
| 20260502071215 | 59 | 290 | 0.0 | 0.0 | 0.00 | 0.00 | 0.00 | 55 | 1023.7 |
| 20260502070718 | 58 | 333 | 0.0 | 0.0 | 0.00 | 0.00 | 0.00 | 54 | 1023.7 |
| 20260502070220 | 58 | 333 | 0.0 | 0.0 | 0.00 | 0.00 | 0.00 | 57 | 1023.8 |
| 20260502065719 | 57 | 333 | 0.0 | 0.0 | 0.00 | 0.00 | 0.00 | 58 | 1023.8 |
| 20260502065209 | 56 | 333 | 0.0 | 0.0 | 0.00 | 0.00 | 0.00 | 59 | 1023.9 |
| 20260502064747 | 55 | 333 | 0.0 | 0.0 | 0.00 | 0.00 | 0.00 | 64 | 1023.8 |
| 20260502063715 | 53 | 333 | 0.0 | 0.0 | 0.00 | 0.00 | 0.00 | 66 | 1023.8 |
| 20260502063218 | 52 | 333 | 0.0 | 0.0 | 0.00 | 0.00 | 0.00 | 66 | 1023.8 |
| 20260502062717 | 52 | 333 | 0.0 | 0.0 | 0.00 | 0.00 | 0.00 | 68 | 1023.8 |
| 20260502062226 | 51 | 333 | 0.0 | 0.0 | 0.00 | 0.00 | 0.00 | 67 | 1023.8 |
| 20260502061727 | 51 | 333 | 0.0 | 0.0 | 0.00 | 0.00 | 0.00 | 68 | 1023.9 |
| 20260502061222 | 50 | 333 | 0.0 | 0.0 | 0.00 | 0.00 | 0.00 | 70 | 1023.9 |
| 20260502060710 | 50 | 333 | 0.0 | 0.0 | 0.00 | 0.00 | 0.00 | 70 | 1023.9 |
| 20260502060219 | 49 | 333 | 0.0 | 0.0 | 0.00 | 0.00 | 0.00 | 69 | 1023.9 |
| 20260502055719 | 49 | 333 | 0.0 | 0.0 | 0.00 | 0.00 | 0.00 | 69 | 1023.9 |
| 20260502055223 | 49 | 333 | 0.0 | 0.0 | 0.00 | 0.00 | 0.00 | 69 | 1023.8 |
| 20260502054720 | 49 | 333 | 0.0 | 0.0 | 0.00 | 0.00 | 0.00 | 69 | 1023.9 |
| 20260502053724 | 48 | 333 | 0.0 | 0.0 | 0.00 | 0.00 | 0.00 | 69 | 1024.0 |
| 20260502053218 | 48 | 333 | 0.0 | 0.0 | 0.00 | 0.00 | 0.00 | 69 | 1023.9 |
| 20260502052717 | 48 | 333 | 0.0 | 0.0 | 0.00 | 0.00 | 0.00 | 68 | 1023.9 |
| 20260502052210 | 48 | 333 | 0.0 | 0.0 | 0.00 | 0.00 | 0.00 | 68 | 1023.9 |
| 20260502051220 | 48 | 333 | 0.0 | 0.0 | 0.00 | 0.00 | 0.00 | 69 | 1023.8 |
| 20260502050722 | 48 | 333 | 0.0 | 0.0 | 0.00 | 0.00 | 0.00 | 68 | 1023.7 |
| 20260502050218 | 47 | 333 | 0.0 | 0.0 | 0.00 | 0.00 | 0.00 | 67 | 1023.8 |
| 20260502045721 | 47 | 333 | 0.0 | 0.0 | 0.00 | 0.00 | 0.00 | 68 | 1023.7 |
| 20260502045227 | 47 | 333 | 0.0 | 0.0 | 0.00 | 0.00 | 0.00 | 67 | 1023.6 |
| 20260502044718 | 47 | 333 | 0.0 | 0.0 | 0.00 | 0.00 | 0.00 | 68 | 1023.6 |
| 20260502044217 | 47 | 333 | 0.0 | 0.0 | 0.00 | 0.00 | 0.00 | 67 | 1023.6 |
| 20260502043720 | 47 | 333 | 0.0 | 0.0 | 0.00 | 0.00 | 0.00 | 67 | 1023.7 |
| 20260502043207 | 47 | 169 | 0.0 | 0.0 | 0.00 | 0.00 | 0.00 | 67 | 1023.7 |
| 20260502042719 | 47 | 140 | 0.0 | 0.0 | 0.00 | 0.00 | 0.00 | 67 | 1023.6 |
| 20260502042223 | 47 | 140 | 0.0 | 0.0 | 0.00 | 0.00 | 0.00 | 67 | 1023.7 |
| 20260502041718 | 47 | 140 | 0.0 | 0.0 | 0.00 | 0.00 | 0.00 | 67 | 1023.6 |
| 20260502041232 | 47 | 140 | 0.0 | 0.0 | 0.00 | 0.00 | 0.00 | 67 | 1023.6 |
| 20260502040719 | 47 | 140 | 0.0 | 0.0 | 0.00 | 0.00 | 0.00 | 66 | 1023.6 |
| 20260502040217 | 47 | 140 | 0.0 | 0.0 | 0.00 | 0.00 | 0.00 | 66 | 1023.6 |
| 20260502035720 | 47 | 140 | 0.0 | 0.0 | 0.00 | 0.00 | 0.00 | 66 | 1023.6 |
| 20260502035224 | 47 | 140 | 0.0 | 0.0 | 0.00 | 0.00 | 0.00 | 66 | 1023.6 |
| 20260502034713 | 47 | 140 | 0.0 | 0.0 | 0.00 | 0.00 | 0.00 | 66 | 1023.6 |
| 20260502034223 | 47 | 140 | 0.0 | 0.0 | 0.00 | 0.00 | 0.00 | 66 | 1023.6 |
| 20260502033726 | 47 | 140 | 0.0 | 0.0 | 0.00 | 0.00 | 0.00 | 65 | 1023.6 |
| 20260502033211 | 47 | 140 | 0.0 | 0.0 | 0.00 | 0.00 | 0.00 | 65 | 1023.6 |
| 20260502032721 | 47 | 140 | 0.0 | 0.0 | 0.00 | 0.00 | 0.00 | 65 | 1023.6 |
| 20260502032212 | 47 | 140 | 0.0 | 0.0 | 0.00 | 0.00 | 0.00 | 65 | 1023.6 |
| 20260502031723 | 47 | 140 | 0.0 | 0.0 | 0.00 | 0.00 | 0.00 | 65 | 1023.6 |
| 20260502031225 | 47 | 140 | 0.0 | 0.0 | 0.00 | 0.00 | 0.00 | 65 | 1023.6 |
| 20260502030721 | 47 | 140 | 0.0 | 0.0 | 0.00 | 0.00 | 0.00 | 65 | 1023.6 |
| 20260502030226 | 47 | 140 | 0.0 | 0.0 | 0.00 | 0.00 | 0.00 | 66 | 1023.6 |
| 20260502025721 | 47 | 140 | 0.0 | 0.0 | 0.00 | 0.00 | 0.00 | 66 | 1023.7 |
| 20260502024719 | 47 | 140 | 0.0 | 0.0 | 0.00 | 0.00 | 0.00 | 65 | 1023.7 |
| 20260502024234 | 47 | 140 | 0.0 | 0.0 | 0.00 | 0.00 | 0.00 | 64 | 1023.8 |
| 20260502023712 | 47 | 140 | 0.0 | 0.0 | 0.00 | 0.00 | 0.00 | 65 | 1023.8 |
| 20260502023224 | 47 | 140 | 0.0 | 0.0 | 0.00 | 0.00 | 0.00 | 65 | 1023.8 |
| 20260502022722 | 47 | 140 | 0.0 | 0.0 | 0.00 | 0.00 | 0.00 | 65 | 1023.8 |
| 20260502022224 | 47 | 140 | 0.0 | 0.0 | 0.00 | 0.00 | 0.00 | 65 | 1023.8 |
| 20260502021214 | 47 | 140 | 0.0 | 0.0 | 0.00 | 0.00 | 0.00 | 64 | 1023.8 |
| 20260502020724 | 47 | 140 | 0.0 | 0.0 | 0.00 | 0.00 | 0.00 | 64 | 1023.8 |
| 20260502020217 | 47 | 140 | 0.0 | 0.0 | 0.00 | 0.00 | 0.00 | 64 | 1023.8 |
| 20260502015720 | 47 | 140 | 0.0 | 0.0 | 0.00 | 0.00 | 0.00 | 64 | 1023.8 |
| 20260502015221 | 47 | 140 | 0.0 | 0.0 | 0.00 | 0.00 | 0.00 | 64 | 1023.9 |
| 20260502012706 | 47 | 140 | 0.0 | 0.0 | 0.00 | 0.00 | 0.00 | 63 | 1024.0 |
| 20260502012215 | 47 | 140 | 0.0 | 0.0 | 0.00 | 0.00 | 0.00 | 63 | 1023.9 |
| 20260502011719 | 47 | 140 | 0.0 | 0.0 | 0.00 | 0.00 | 0.00 | 63 | 1023.9 |
| 20260502010719 | 48 | 140 | 0.0 | 0.0 | 0.00 | 0.00 | 0.00 | 63 | 1024.0 |
| 20260502010221 | 48 | 140 | 0.0 | 0.0 | 0.00 | 0.00 | 0.00 | 62 | 1024.0 |
| 20260502005727 | 48 | 140 | 0.0 | 0.0 | 0.00 | 0.00 | 0.00 | 62 | 1024.0 |
| 20260502005229 | 48 | 140 | 0.0 | 0.0 | 0.00 | 0.00 | 0.00 | 62 | 1024.0 |
| 20260502004725 | 48 | 140 | 0.0 | 0.0 | 0.00 | 0.00 | 0.00 | 62 | 1024.1 |
| 20260502004222 | 48 | 140 | 0.0 | 0.0 | 0.00 | 0.00 | 0.00 | 62 | 1024.1 |
| 20260502003723 | 48 | 140 | 0.0 | 0.0 | 0.00 | 0.00 | 0.00 | 62 | 1024.1 |
| 20260502003229 | 48 | 140 | 0.0 | 0.0 | 0.00 | 0.00 | 0.00 | 62 | 1024.1 |
| 20260502002725 | 48 | 140 | 0.0 | 0.0 | 0.00 | 0.00 | 0.00 | 62 | 1024.1 |
| 20260502002208 | 48 | 140 | 0.0 | 0.0 | 0.00 | 0.00 | 0.00 | 61 | 1024.3 |
| 20260502001718 | 49 | 140 | 0.0 | 0.0 | 0.00 | 0.00 | 0.00 | 61 | 1024.3 |
| 20260502000721 | 49 | 140 | 0.0 | 0.0 | 0.00 | 0.00 | 0.00 | 62 | 1024.4 |
| 20260501235222 | 49 | 140 | 0.0 | 0.0 | 0.00 | 0.00 | 0.00 | 61 | 1024.5 |
| 20260501234215 | 49 | 140 | 0.0 | 0.0 | 0.00 | 0.00 | 0.00 | 60 | 1024.5 |
| 20260501233718 | 49 | 140 | 0.0 | 0.0 | 0.00 | 0.00 | 0.00 | 60 | 1024.5 |
| 20260501233219 | 49 | 140 | 0.0 | 0.0 | 0.00 | 0.00 | 0.00 | 60 | 1024.5 |
| 20260501232726 | 49 | 140 | 0.0 | 0.0 | 0.00 | 0.00 | 0.00 | 60 | 1024.5 |
| 20260501232214 | 49 | 140 | 0.0 | 0.0 | 0.00 | 0.00 | 0.00 | 59 | 1024.5 |
| 20260501231711 | 49 | 140 | 0.0 | 0.0 | 0.00 | 0.00 | 0.00 | 59 | 1024.5 |
| 20260501231221 | 49 | 140 | 0.0 | 0.0 | 0.00 | 0.00 | 0.00 | 58 | 1024.5 |
| 20260501230717 | 49 | 140 | 0.0 | 0.0 | 0.00 | 0.00 | 0.00 | 58 | 1024.5 |
| 20260501230220 | 49 | 140 | 0.0 | 0.0 | 0.00 | 0.00 | 0.00 | 58 | 1024.5 |
| 20260501225716 | 49 | 141 | 0.0 | 0.0 | 0.00 | 0.00 | 0.00 | 58 | 1024.6 |
| 20260501225220 | 49 | 142 | 0.0 | 0.0 | 0.00 | 0.00 | 0.00 | 59 | 1024.6 |
| 20260501224733 | 49 | 123 | 0.0 | 0.0 | 0.00 | 0.00 | 0.00 | 57 | 1024.5 |
| 20260501224221 | 49 | 123 | 0.0 | 0.0 | 0.00 | 0.00 | 0.00 | 57 | 1024.6 |
| 20260501223715 | 49 | 123 | 0.0 | 0.0 | 0.00 | 0.00 | 0.00 | 58 | 1024.5 |
| 20260501223215 | 49 | 148 | 0.0 | 0.0 | 0.00 | 0.00 | 0.00 | 58 | 1024.5 |
| 20260501222714 | 49 | 63 | 0.0 | 0.0 | 0.00 | 0.00 | 0.00 | 57 | 1024.6 |
| 20260501222221 | 49 | 65 | 0.0 | 0.0 | 0.00 | 0.00 | 0.00 | 57 | 1024.6 |
| 20260501221722 | 49 | 65 | 0.0 | 0.0 | 0.00 | 0.00 | 0.00 | 57 | 1024.5 |
| 20260501221215 | 49 | 65 | 0.0 | 0.0 | 0.00 | 0.00 | 0.00 | 57 | 1024.5 |
| 20260501220729 | 50 | 59 | 0.0 | 0.0 | 0.00 | 0.00 | 0.00 | 56 | 1024.5 |
| 20260501215707 | 50 | 59 | 0.0 | 0.0 | 0.00 | 0.00 | 0.00 | 56 | 1024.5 |
| 20260501215223 | 50 | 59 | 0.0 | 0.0 | 0.00 | 0.00 | 0.00 | 56 | 1024.4 |
| 20260501214715 | 50 | 59 | 0.0 | 0.0 | 0.00 | 0.00 | 0.00 | 56 | 1024.5 |
| 20260501214216 | 50 | 59 | 0.0 | 0.0 | 0.00 | 0.00 | 0.00 | 55 | 1024.5 |
| 20260501213227 | 50 | 59 | 0.0 | 0.0 | 0.00 | 0.00 | 0.00 | 55 | 1024.5 |
| 20260501211717 | 51 | 59 | 0.0 | 0.0 | 0.00 | 0.00 | 0.00 | 55 | 1024.6 |
| 20260501211228 | 51 | 59 | 0.0 | 0.0 | 0.00 | 0.00 | 0.00 | 55 | 1024.5 |
| 20260501210720 | 51 | 57 | 0.0 | 0.0 | 0.00 | 0.00 | 0.00 | 54 | 1024.5 |
| 20260501210221 | 51 | 57 | 0.0 | 0.0 | 0.00 | 0.00 | 0.00 | 55 | 1024.4 |
| 20260501205725 | 51 | 136 | 0.0 | 0.0 | 0.00 | 0.00 | 0.00 | 54 | 1024.4 |
| 20260501205219 | 51 | 136 | 0.0 | 0.0 | 0.00 | 0.00 | 0.00 | 54 | 1024.5 |
| 20260501204722 | 51 | 137 | 0.0 | 0.0 | 0.00 | 0.00 | 0.00 | 54 | 1024.5 |
| 20260501204211 | 51 | 126 | 0.0 | 0.0 | 0.00 | 0.00 | 0.00 | 54 | 1024.5 |
| 20260501203729 | 51 | 131 | 0.0 | 0.0 | 0.00 | 0.00 | 0.00 | 53 | 1024.4 |
| 20260501203217 | 52 | 131 | 0.0 | 0.0 | 0.00 | 0.00 | 0.00 | 53 | 1024.5 |
| 20260501202716 | 52 | 131 | 0.0 | 0.0 | 0.00 | 0.00 | 0.00 | 52 | 1024.5 |
| 20260501202215 | 52 | 131 | 0.0 | 0.0 | 0.00 | 0.00 | 0.00 | 52 | 1024.5 |
| 20260501201731 | 53 | 131 | 0.0 | 0.0 | 0.00 | 0.00 | 0.00 | 51 | 1024.5 |
| 20260501201232 | 53 | 130 | 0.0 | 0.0 | 0.00 | 0.00 | 0.00 | 50 | 1024.5 |
| 20260501200716 | 53 | 131 | 0.0 | 0.0 | 0.00 | 0.00 | 0.00 | 50 | 1024.5 |
| 20260501200219 | 54 | 131 | 0.0 | 0.0 | 0.00 | 0.00 | 0.00 | 49 | 1024.4 |
| 20260501195715 | 54 | 131 | 0.0 | 0.0 | 0.00 | 0.00 | 0.00 | 49 | 1024.4 |
| 20260501195220 | 54 | 131 | 0.0 | 0.0 | 0.00 | 0.00 | 0.00 | 50 | 1024.4 |
| 20260501194207 | 55 | 19 | 0.0 | 0.0 | 0.00 | 0.00 | 0.00 | 47 | 1024.3 |
| 20260501193706 | 55 | 19 | 0.0 | 0.0 | 0.00 | 0.00 | 0.00 | 48 | 1024.3 |
| 20260501193215 | 55 | 19 | 0.0 | 0.0 | 0.00 | 0.00 | 0.00 | 47 | 1024.3 |
| 20260501192726 | 56 | 19 | 0.0 | 0.0 | 0.00 | 0.00 | 0.00 | 47 | 1024.3 |
| 20260501192213 | 56 | 19 | 0.0 | 0.0 | 0.00 | 0.00 | 0.00 | 46 | 1024.3 |
| 20260501191731 | 56 | 19 | 0.0 | 0.0 | 0.00 | 0.00 | 0.00 | 46 | 1024.3 |
| 20260501191222 | 56 | 19 | 0.0 | 0.0 | 0.00 | 0.00 | 0.00 | 46 | 1024.3 |
| 20260501190712 | 57 | 19 | 0.0 | 0.0 | 0.00 | 0.00 | 0.00 | 45 | 1024.3 |
| 20260501190220 | 57 | 17 | 0.0 | 0.0 | 0.00 | 0.00 | 0.00 | 45 | 1024.3 |
| 20260501185720 | 57 | 15 | 0.0 | 0.0 | 0.00 | 0.00 | 0.00 | 44 | 1024.1 |
| 20260501185227 | 58 | 13 | 0.0 | 0.0 | 0.00 | 0.00 | 0.00 | 46 | 1024.0 |
| 20260501184714 | 58 | 13 | 0.0 | 0.0 | 0.00 | 0.00 | 0.00 | 44 | 1024.0 |
| 20260501184227 | 58 | 13 | 0.0 | 0.0 | 0.00 | 0.00 | 0.00 | 47 | 1023.9 |
| 20260501183216 | 59 | 9 | 0.0 | 0.0 | 0.00 | 0.00 | 0.00 | 46 | 1023.9 |
| 20260501182218 | 59 | 5 | 0.0 | 0.0 | 0.00 | 0.00 | 0.00 | 50 | 1023.8 |